Regional Weather Roundup
Issued by NWS

Home | Current Version | Previous Version | Text Only | Print | Product List | Glossary Off
Versions: 1 2 3 4 5 6 7 8 9 10 11 12 13 14 15 16 17 18 19 20 21 22 23 24 25 26 27 28 29 30 31 32 33 34 35 36 37 38 39 40 41 42 43 44 45 46 47 48 49 50

438
ASUS43 KMKX 171721
RWRWI

WISCONSIN REGIONAL WEATHER ROUNDUP
NATIONAL WEATHER SERVICE MILWAUKEE/SULLIVAN WI
1100 AM CST FRI NOV 17 2017

NOTE: "FAIR" INDICATES FEW OR NO CLOUDS BELOW 12,000 FEET WITH NO
SIGNIFICANT WEATHER AND/OR OBSTRUCTIONS TO VISIBILITY.

WIZ001-002-006>008-014>016-023>028-171800-
NORTHWEST WISCONSIN

CITY           SKY/WX    TMP DP  RH WIND       PRES   REMARKS
SUPERIOR ARPT  FOG       33  33 100 SE6       29.69F VSB 1   WCI  27
ASHLAND        CLOUDY    34  31  88 S8        29.72F FOG     WCI  27
HAYWARD        MIX PCPN  33  31  92 S8        29.70F FOG     WCI  26
SIREN          MIX PCPN  34  33  96 S3        29.70S
CUMBERLAND     DRIZZLE   32  32 100 SE8       29.70S WCI  25
RICE LAKE      MIX PCPN  33  32  94 SE7       29.72F WCI  27
CHETEK         CLOUDY    34  30  86 SE9       29.72S WCI  26
LADYSMITH      CLOUDY    35  31  87 S9G16     29.73F WCI  27
EAU CLAIRE     CLOUDY    36  30  79 S14       29.70F WCI  27
MENOMONIE      CLOUDY    37  33  86 SE9       29.70F FOG     WCI  30
NEW RICHMOND   CLOUDY    35  34  96 S9        29.69S FOG     WCI  28
OSCEOLA        LGT RAIN  35  35 100 SE5       29.71F WCI  31
$$

WIZ003>005-009-010-017-018-171800-
NORTH CENTRAL WISCONSIN

CITY           SKY/WX    TMP DP  RH WIND       PRES   REMARKS
MANITOWISH WTR LGT RAIN  32  32 100 S10G22    29.71F WCI  23
ARBOR VITAE    MIX PCPN  34  32  92 S13G20    29.72F WCI  25
WOODRUFF       MIX PCPN  34  32  92 S13G20    29.72F WCI  25
RHINELANDER    CLOUDY    33  30  88 S13       29.76F WCI  24
EAGLE RIVER    MIX PCPN  32  31  96 S9        29.73F WCI  24
LAND O LAKES   MIX PCPN  33  31  94 S12G21    29.75F WCI  24
PHILLIPS       CLOUDY    32  32 100 S9        29.71F WCI  24
TOMAHAWK       DRIZZLE   32  29  88 SE6       29.76F WCI  26
MEDFORD        MIX PCPN  32  30  92 SE17G23   29.73F WCI  21
MERRILL        DRIZZLE   34  31  88 S8G21     29.76F WCI  27
$$

WIZ029-030-035-036-043>047-171800-
CENTRAL WISCONSIN

CITY           SKY/WX    TMP DP  RH WIND       PRES   REMARKS
WAUSAU         CLOUDY    34  29  82 SE15      29.78F WCI  24
MOSINEE        CLOUDY    34  30  86 SE12      29.81F WCI  25
MARSHFIELD     LGT RAIN  34  28  79 SE15G23   29.76F WCI  24
STEVENS POINT  CLOUDY    34  28  80 SE10G17   29.82F WCI  26
WAUPACA        CLOUDY    39  31  72 S13G18    29.86F WCI  32
WAUTOMA        CLOUDY    37  29  72 SE14      29.85F WCI  28
WISC RAPIDS    CLOUDY    37  29  72 S9G23     29.81F WCI  30
CAMP DOUGLAS   DRIZZLE   37  30  75 SE8       29.79F WCI  31
$$

WIZ011>013-019>022-031-037>040-048>050-171800-
NORTHEAST WISCONSIN

CITY           SKY/WX    TMP DP  RH WIND       PRES   REMARKS
ANTIGO         CLOUDY    32  30  92 S18       29.81F WCI  20
SHAWANO        CLOUDY    39  32  75 SE13      29.85F WCI  32
OCONTO         CLOUDY    40  33  77 S10       29.91F WCI  33
STURGEON BAY   CLOUDY    41  35  79 S23G29    29.91F
GREEN BAY      CLOUDY    40  34  79 S15       29.90F WCI  32
MANITOWOC      CLOUDY    41  35  79 S22G30    29.91F
APPLETON       CLOUDY    36  28  75 S17G23    29.87F WCI  25
CLINTONVILLE   CLOUDY    37  30  75 S10       29.88F WCI  30
OSHKOSH        CLOUDY    39  31  72 S14G24    29.88F WCI  31
$$

WIZ032>034-041-042-053>061-171800-
SOUTHWEST WISCONSIN

CITY           SKY/WX    TMP DP  RH WIND       PRES   REMARKS
LA CROSSE      LGT RAIN  38  34  85 S15G25    29.76F FOG     WCI  29
SPARTA         CLOUDY    37  32  82 S10G16    29.79F WCI  30
VIROQUA        CLOUDY    34  34 100 S12       29.77F WCI  26
BOSCOBEL       CLOUDY    39  31  72 VRB6G16   29.83F WCI  35
PRAIRIE DU CHI DRIZZLE   37  32  83 E9        29.80F WCI  30
PLATTEVILLE    CLOUDY    37  33  87 S15       29.83F WCI  27
$$

WIZ056-057-062-063-064-067-068-171800-
SOUTH CENTRAL WISCONSIN

CITY           SKY/WX    TMP DP  RH WIND       PRES   REMARKS
REEDSBURG      CLOUDY    37  29  72 S9        29.81F WCI  30
BARABOO/DELLS  CLOUDY    37  28  72 S20       29.82F WCI  26
LONE ROCK      CLOUDY    39  31  72 SE8       29.84F WCI  33
MINERAL POINT  CLOUDY    36  34  93 SE17      29.82F WCI  25
MADISON        CLOUDY    37  29  72 S21G28    29.86F WCI  26
MIDDLETON      CLOUDY    38  31  74 S17G23    29.85F WCI  29
WATERTOWN      CLOUDY    37  32  82 SE12G17   29.89F WCI  29
MONROE         CLOUDY    36  30  80 S23G29    29.86F WCI  24
JANESVILLE     CLOUDY    39  30  70 S20G26    29.90F WCI  30
$$

WIZ051-052-058>065-066-070>072-171800-
SOUTHEAST WISCONSIN

CITY           SKY/WX    TMP DP  RH WIND       PRES   REMARKS
MILWAUKEE      CLOUDY    40  32  73 S18       29.96F WCI  31
WAUKESHA       NOT AVBL
MILWAUKEE/TIMM CLOUDY    37  28  70 S13G18    29.96F WCI  29
RACINE         CLOUDY    39  33  79 S20G30    29.98F WCI  29
BURLINGTON     MOSUNNY   40  35  82 S12       29.94F WCI  33
KENOSHA        CLOUDY    40  32  73 S15       29.96F WCI  32
FOND DU LAC    CLOUDY    39  30  70 S16G25    29.89F WCI  30
SHEBOYGAN      CLOUDY    39  35  86 S21G32    29.92F WCI  29
WEST BEND      CLOUDY    36  32  87 S12       29.91F WCI  27
JUNEAU         CLOUDY    37  31  80 SE16      29.90F WCI  27
$$

LSZ147-162-171800-
LAKE SUPERIOR

STATION/POSITION TIME  TEMP    WIND        PRES    WAVE
                       AIR SEA DIR/SP/G            HT/PER
                 (UTC) (F)     (DEG/KT/KT) (MB)    (FT/S)
DEVILS ISLAND    1700   35     230/  9/ 11 1007.3F
SAXON HARBOR     1700   37     190/  8/ 17 1005.8
$$

LMZ867-665-643>646-171800-
LAKE MICHIGAN

STATION/POSITION TIME  TEMP    WIND        PRES    WAVE
                       AIR SEA DIR/SP/G            HT/PER
                 (UTC) (F)     (DEG/KT/KT) (MB)    (FT/S)
N MID LAKE BUOY  1650   40 49  170/ 23/ 29 1015.3F   6/ 6
NORTHPORT PIER   1640   41     150/ 18/ 26 1013.5F
KEWAUNEE LAKESHO 1654   41     170/ 23/ 27 1012.6F
SHEBOYGAN LAKESH 1700   40     170/ 28/ 32 1013.0F
PORT WASHINGTON  1630   40     170/ 18/ 28 1015.2F
MILWAUKEE LAKESH 1700   39     180/ 16/ 19   N/A
S MID LAKE BUOY  1650   41 50  140/ 21/ 25 1016.6F   5/ 6
KENOSHA   LAKESH 1700   39     170/ 24/ 28 1014.6
$$

TC  - TEMPERATURE IN CELSIUS
VSB - VISIBILITY IN STATUTE MILES
WCI - WIND CHILL INDEX
HX  - HEAT INDEX





USA.gov is the U.S. government's official web portal to all federal, state and local government web resources and services.